User: anonymous   Login
Location: Unspecified
(0.0000°N, 0.0000°E)
Time: 03:15:51
(UTC+01:00)
Language:

Cosmos 494 Rocket - Orbit

View from above orbital plane
View from above orbital plane
View from above satellite
View from above satellite

Ground track
Ground track

The orbit data is extracted from the following two-line orbital elements,

1 06061U 72043B   14352.23518306  .00000265  00000-0  91856-4 0  6063
2 06061 074.0582 064.2122 0019125 060.9398 355.1367 14.40256839227015
Epoch (UTC): 18 December 2014 05:38:39
Eccentricity: 0.0019125
inclination: 74.0582°
perigee height: 744 km
apogee height: 771 km
right ascension of ascending node: 64.2122°
argument of perigee: 60.9398°
revolutions per day: 14.40256839
mean anomaly at epoch: 355.1367°
orbit number at epoch: 22701

The dashed part of the orbit path shows where the satellite is in the earth's shadow,  

DLR